Weather History for Bangkok (Suvarnabhumi), Thailand

Change the Weather History Date:

Wednesday, June 26, 2013

  Actual Average (VTBD) Record (VTBD)
Temperature  
Mean Temperature 84 °F -  
Max Temperature 90 °F 90 °F 95 °F (1997)
Min Temperature 77 °F 77 °F 73 °F (2000)
Cooling Degree Days 18    
Growing Degree Days 34 (Base 50)    
Moisture  
Dew Point 75 °F    
Average Humidity 80    
Maximum Humidity 89    
Minimum Humidity 61    
Precipitation  
Precipitation 0.00 in 0.18 in - ()
Sea Level Pressure  
Sea Level Pressure 29.82 in    
Wind  
Wind Speed 4 mph ()    
Max Wind Speed 10 mph    
Max Gust Speed -    
Visibility 6.1 miles    
Events Rain , Thunderstorm    
Averages and records for this station are not official NWS values.
T = Trace of Precipitation, MM = Missing Value Source: Averaged Metar Reports

Daily Weather History Graph

Daily Weather History Graph

Search for Another Location

Airport:

Trip Planner

Search our weather history database for the weather conditions in past years. The results will help you decide how hot, cold, wet, or windy it might be!

Date:

Astronomy

Jun. 26, 2013 Rise Set
Actual Time 5:51 AM ICT 6:46 PM ICT
Civil Twilight 5:28 AM ICT 7:09 PM ICT
Nautical Twilight 5:00 AM ICT 7:37 PM ICT
Astronomical Twilight 4:32 AM ICT 8:05 PM ICT
Moon 9:26 PM ICT (6/26) 8:35 AM ICT (6/26)
Length of Visible Light 13h 41m
Length of Day
12h 54m
Waning Gibbous, 89% of the Moon is Illuminated
Jun 26
Waning Gibbous
Jun 30
Last Quarter
Jul 8
New
Jul 16
First Quarter
Jul 23
Full

Hourly Weather History & Observations

Time (ICT) Temp. Heat Index Dew Point Humidity Pressure Visibility Wind Dir Wind Speed Gust Speed Precip Events Conditions
12:00 AM 84.2 °F 92.3 °F 75.2 °F 74% 29.83 in 6.2 mi SW 4.6 mph - N/A   Mostly Cloudy
12:30 AM 84.2 °F 92.3 °F 75.2 °F 74% 29.83 in 6.2 mi SSW 5.8 mph - N/A   Mostly Cloudy
1:00 AM 82 °F - 76 °F 78% 29.82 in 6 mi Calm Calm - -   Partly Cloudy
1:00 AM 82.4 °F 89.5 °F 75.2 °F 79% 29.83 in 6.2 mi SW 5.8 mph - N/A   Mostly Cloudy
1:30 AM 82.4 °F 89.5 °F 75.2 °F 79% 29.83 in 6.2 mi SW 5.8 mph - N/A   Mostly Cloudy
2:00 AM 82.4 °F 89.5 °F 75.2 °F 79% 29.83 in 6.2 mi SW 6.9 mph - N/A   Mostly Cloudy
2:30 AM 82.4 °F 89.5 °F 75.2 °F 79% 29.80 in 6.2 mi SW 3.5 mph - N/A   Mostly Cloudy
3:00 AM 82.4 °F 89.5 °F 75.2 °F 79% 29.80 in 6.2 mi SW 2.3 mph - N/A   Mostly Cloudy
3:30 AM 84.2 °F 92.3 °F 75.2 °F 74% 29.80 in 6.2 mi WSW 3.5 mph - N/A   Mostly Cloudy
4:00 AM 82.4 °F 89.5 °F 75.2 °F 79% 29.80 in 6.2 mi SW 4.6 mph - N/A   Mostly Cloudy
4:30 AM 84.2 °F 94.1 °F 77.0 °F 79% 29.80 in 6.2 mi West 4.6 mph - N/A   Mostly Cloudy
5:00 AM 82.4 °F 89.5 °F 75.2 °F 79% 29.80 in 6.2 mi WNW 4.6 mph - N/A   Mostly Cloudy
5:30 AM 82.4 °F 89.5 °F 75.2 °F 79% 29.83 in 6.2 mi WNW 4.6 mph - N/A   Mostly Cloudy
6:00 AM 84.2 °F 92.3 °F 75.2 °F 74% 29.83 in 6.2 mi West 3.5 mph - N/A   Mostly Cloudy
6:30 AM 82.4 °F 89.5 °F 75.2 °F 79% 29.83 in 6.2 mi WSW 3.5 mph - N/A   Mostly Cloudy
7:00 AM 82 °F - 78 °F 85% 29.82 in 6 mi Calm Calm - -   Overcast
7:00 AM 82.4 °F 90.9 °F 77.0 °F 84% 29.83 in 6.2 mi Variable 2.3 mph - N/A   Mostly Cloudy
7:30 AM 84.2 °F 92.3 °F 75.2 °F 74% 29.83 in 5.6 mi South 2.3 mph - N/A   Mostly Cloudy
8:00 AM 84.2 °F 94.1 °F 77.0 °F 79% 29.86 in 5.6 mi East 3.5 mph - N/A   Mostly Cloudy
8:30 AM 84.2 °F 94.1 °F 77.0 °F 79% 29.86 in 6.2 mi ESE 3.5 mph - N/A   Mostly Cloudy
9:00 AM 84.2 °F 94.1 °F 77.0 °F 79% 29.86 in 6.2 mi ENE 3.5 mph - N/A   Overcast
9:30 AM 84.2 °F 94.1 °F 77.0 °F 79% 29.86 in 6.2 mi ENE 3.5 mph - N/A   Overcast
10:00 AM 84.2 °F 92.3 °F 75.2 °F 74% 29.86 in 6.2 mi WNW 3.5 mph - N/A Rain Light Rain
10:30 AM 84.2 °F 94.1 °F 77.0 °F 79% 29.86 in 6.2 mi North 4.6 mph - N/A Rain Light Rain
11:00 AM 86.0 °F 96.9 °F 77.0 °F 74% 29.86 in 6.2 mi North 4.6 mph - N/A Rain Light Rain
11:30 AM 86.0 °F 96.9 °F 77.0 °F 74% 29.86 in 6.2 mi North 4.6 mph - N/A Rain Light Rain
12:00 PM 84.2 °F 94.1 °F 77.0 °F 79% 29.86 in 6.2 mi North 9.2 mph - N/A Rain Light Rain
12:30 PM 82.4 °F 89.5 °F 75.2 °F 79% 29.86 in 5.6 mi NE 6.9 mph - N/A Rain , Thunderstorm Thunderstorms and Rain
1:00 PM 90 °F - 78 °F 61% 29.79 in 7 mi WSW 3.5 mph - -   Overcast
1:00 PM 78.8 °F - 73.4 °F 83% 29.86 in 5.0 mi South 10.4 mph - N/A Rain , Thunderstorm Light Thunderstorms and Rain
1:30 PM 78.8 °F - 73.4 °F 83% 29.86 in 6.2 mi South 9.2 mph - N/A Rain Light Rain
2:00 PM 77.0 °F - 73.4 °F 89% 29.83 in 6.2 mi South 10.4 mph - N/A Rain Light Rain
2:30 PM 77.0 °F - 73.4 °F 89% 29.83 in 6.2 mi South 4.6 mph - N/A Rain Light Rain
3:00 PM 78.8 °F - 73.4 °F 83% 29.83 in 4.3 mi WSW 3.5 mph - N/A Rain Light Rain
3:30 PM 78.8 °F - 73.4 °F 83% 29.80 in 5.6 mi South 6.9 mph - N/A Rain Light Rain
4:00 PM 78.8 °F - 73.4 °F 83% 29.77 in 5.6 mi South 6.9 mph - N/A Rain Light Rain
4:30 PM 78.8 °F - 75.2 °F 89% 29.77 in 6.2 mi South 5.8 mph - N/A Rain Light Rain
5:00 PM 80.6 °F 86.2 °F 75.2 °F 84% 29.77 in 6.2 mi SW 3.5 mph - N/A Rain Light Rain
5:30 PM 80.6 °F 86.2 °F 75.2 °F 84% 29.77 in 6.2 mi SW 4.6 mph - N/A Rain Light Rain
6:00 PM 80.6 °F 86.2 °F 75.2 °F 84% 29.77 in 6.2 mi SW 3.5 mph - N/A   Overcast
6:30 PM 80.6 °F 86.2 °F 75.2 °F 84% 29.77 in 6.2 mi SSW 4.6 mph - N/A   Mostly Cloudy
7:00 PM 80.6 °F 86.2 °F 75.2 °F 84% 29.80 in 6.2 mi South 4.6 mph - N/A   Mostly Cloudy
7:30 PM 80.6 °F 86.2 °F 75.2 °F 84% 29.80 in 6.2 mi SSW 6.9 mph - N/A   Mostly Cloudy
8:00 PM 80.6 °F 85.4 °F 73.4 °F 79% 29.80 in 6.2 mi SW 4.6 mph - N/A   Mostly Cloudy
8:30 PM 80.6 °F 85.4 °F 73.4 °F 79% 29.80 in 6.2 mi SSW 4.6 mph - N/A   Mostly Cloudy
9:00 PM 80.6 °F 85.4 °F 73.4 °F 79% 29.80 in 6.2 mi SSW 3.5 mph - N/A   Mostly Cloudy
9:30 PM 78.8 °F - 73.4 °F 83% 29.83 in 6.2 mi SSW 3.5 mph - N/A   Mostly Cloudy
10:00 PM 78.8 °F - 73.4 °F 83% 29.83 in 6.2 mi SSW 3.5 mph - N/A   Mostly Cloudy
10:30 PM 78.8 °F - 73.4 °F 83% 29.83 in 6.2 mi South 4.6 mph - N/A   Mostly Cloudy
11:00 PM 78.8 °F - 73.4 °F 83% 29.83 in 6.2 mi South 3.5 mph - N/A   Mostly Cloudy
11:30 PM 78.8 °F - 73.4 °F 83% 29.83 in 6.2 mi South 2.3 mph - N/A   Mostly Cloudy